HGB873 ZGDY-VHHH

Flight info

Callsign HGB873
Flight time N/A
Altitude 35100
Route DOP17D DOPNI W138 LLC W46 ESBIX W521 LIG R473 BEMAG/K0872S1100 V5 CON W6 SAREX W7 ZUH/K0867S1130 R473 SIERA
Aircraft B738/M-SDE2E3FGHIRWXY/LB1

Departure

Time 2026-04-22 10:31
Airport Zhangjiajie Hehua International Airport (ZGDY)

Arrival

Time N/A
Airport Hong Kong International Airport (VHHH)
Time Latitude Longitude Altitude Speed Heading
2026-04-22 10:09 29.10754 110.44215 728 ft 0 kts 255°
2026-04-22 10:20 29.10759 110.44233 728 ft 4 kts 251°
2026-04-22 10:20 29.10770 110.44261 733 ft 4 kts 232°
2026-04-22 10:21 29.10777 110.44271 732 ft 0 kts 225°
2026-04-22 10:23 29.10761 110.44272 741 ft 5 kts 161°
2026-04-22 10:23 29.10693 110.44294 745 ft 14 kts 165°
2026-04-22 10:23 29.10599 110.44320 751 ft 14 kts 166°
2026-04-22 10:24 29.10527 110.44295 750 ft 10 kts 242°
2026-04-22 10:24 29.10465 110.44281 751 ft 10 kts 158°
2026-04-22 10:24 29.10451 110.44320 753 ft 6 kts 84°
2026-04-22 10:24 29.10465 110.44391 749 ft 13 kts 76°
2026-04-22 10:25 29.10489 110.44497 745 ft 14 kts 75°
2026-04-22 10:25 29.10517 110.44624 752 ft 18 kts 75°
2026-04-22 10:25 29.10555 110.44768 745 ft 19 kts 69°
2026-04-22 10:25 29.10589 110.44909 738 ft 18 kts 76°
2026-04-22 10:26 29.10621 110.45053 734 ft 21 kts 76°
2026-04-22 10:26 29.10663 110.45240 736 ft 26 kts 76°
2026-04-22 10:26 29.10706 110.45435 731 ft 24 kts 76°
2026-04-22 10:26 29.10732 110.45580 730 ft 12 kts 105°
2026-04-22 10:27 29.10659 110.45625 729 ft 12 kts 166°
2026-04-22 10:27 29.10587 110.45632 728 ft 10 kts 212°
2026-04-22 10:27 29.10562 110.45554 735 ft 18 kts 257°
2026-04-22 10:27 29.10470 110.45141 743 ft 90 kts 256°
2026-04-22 10:28 29.10260 110.44202 762 ft 151 kts 255°
2026-04-22 10:28 29.09987 110.42963 1221 ft 164 kts 255°
2026-04-22 10:28 29.09697 110.41684 1961 ft 168 kts 255°
2026-04-22 10:28 29.09400 110.40369 2770 ft 177 kts 255°
2026-04-22 10:29 29.09071 110.38904 3145 ft 208 kts 255°
2026-04-22 10:29 29.08689 110.37205 3398 ft 232 kts 256°
2026-04-22 10:29 29.08281 110.35380 3981 ft 240 kts 256°
2026-04-22 10:29 29.07864 110.33516 4748 ft 243 kts 256°
2026-04-22 10:30 29.07447 110.31644 5644 ft 243 kts 257°
2026-04-22 10:30 29.07028 110.29774 6573 ft 243 kts 258°
2026-04-22 10:30 29.06606 110.27890 7424 ft 245 kts 257°
2026-04-22 10:30 29.06387 110.25968 8280 ft 245 kts 277°
2026-04-22 10:31 29.06900 110.24118 9139 ft 247 kts 298°
2026-04-22 10:31 29.08021 110.22605 9904 ft 256 kts 320°
2026-04-22 10:31 29.09638 110.21685 10643 ft 266 kts 341°
2026-04-22 10:31 29.11500 110.21576 11366 ft 280 kts
2026-04-22 10:32 29.13310 110.22493 12020 ft 297 kts 37°
2026-04-22 10:32 29.14609 110.24373 12741 ft 307 kts 58°
2026-04-22 10:32 29.15686 110.26514 13395 ft 314 kts 59°
2026-04-22 10:32 29.16756 110.28718 14072 ft 319 kts 64°
2026-04-22 10:33 29.17305 110.31184 14724 ft 321 kts 88°
2026-04-22 10:33 29.17321 110.33713 15413 ft 323 kts 92°
2026-04-22 10:33 29.17278 110.36302 16048 ft 327 kts 94°
2026-04-22 10:33 29.16867 110.38859 16684 ft 327 kts 113°
2026-04-22 10:34 29.15879 110.41214 17115 ft 334 kts 130°
2026-04-22 10:34 29.14314 110.43267 17293 ft 351 kts 138°
2026-04-22 10:34 29.12552 110.45320 17441 ft 371 kts 139°
2026-04-22 10:34 29.10685 110.47460 17581 ft 390 kts 139°
2026-04-22 10:35 29.08731 110.49720 17702 ft 407 kts 138°
2026-04-22 10:35 29.06745 110.52049 17859 ft 421 kts 137°
2026-04-22 10:35 29.04706 110.54466 18204 ft 429 kts 137°
2026-04-22 10:35 29.02604 110.56973 18667 ft 432 kts 137°
2026-04-22 10:36 29.00516 110.59466 19144 ft 433 kts 137°
2026-04-22 10:36 28.98420 110.61961 19564 ft 437 kts 138°
2026-04-22 10:36 28.96304 110.64476 19975 ft 441 kts 137°
2026-04-22 10:36 28.94353 110.67157 20388 ft 448 kts 129°
2026-04-22 10:37 28.92611 110.70134 20793 ft 452 kts 126°
2026-04-22 10:37 28.89249 110.76280 21532 ft 460 kts 125°
2026-04-22 10:37 28.87541 110.79386 21882 ft 463 kts 126°
2026-04-22 10:38 28.85801 110.82499 22275 ft 466 kts 126°
2026-04-22 10:38 28.84038 110.85612 22662 ft 468 kts 126°
2026-04-22 10:38 28.82274 110.88701 23022 ft 471 kts 126°
2026-04-22 10:38 28.80478 110.91834 23363 ft 474 kts 127°
2026-04-22 10:39 28.78660 110.94999 23672 ft 477 kts 126°
2026-04-22 10:39 28.76836 110.98175 23955 ft 480 kts 127°
2026-04-22 10:39 28.75001 111.01369 24237 ft 482 kts 127°
2026-04-22 10:39 28.73163 111.04569 24531 ft 484 kts 127°
2026-04-22 10:40 28.71337 111.07749 24809 ft 486 kts 127°
2026-04-22 10:40 28.69478 111.10981 25096 ft 488 kts 127°
2026-04-22 10:40 28.67612 111.14224 25358 ft 490 kts 127°
2026-04-22 10:40 28.65736 111.17480 25629 ft 493 kts 127°
2026-04-22 10:41 28.63866 111.20758 25891 ft 495 kts 126°
2026-04-22 10:41 28.61996 111.24067 26158 ft 497 kts 126°
2026-04-22 10:41 28.60127 111.27383 26432 ft 499 kts 126°
2026-04-22 10:41 28.58250 111.30714 26687 ft 501 kts 126°
2026-04-22 10:42 28.56357 111.34066 26938 ft 503 kts 126°
2026-04-22 10:42 28.54482 111.37381 27191 ft 506 kts 126°
2026-04-22 10:42 28.52568 111.40757 27437 ft 508 kts 126°
2026-04-22 10:42 28.50651 111.44137 27687 ft 509 kts 127°
2026-04-22 10:43 28.48725 111.47528 27927 ft 511 kts 126°
2026-04-22 10:43 28.46793 111.50928 28126 ft 513 kts 126°
2026-04-22 10:43 28.44845 111.54355 28321 ft 516 kts 126°
2026-04-22 10:43 28.42893 111.57784 28547 ft 517 kts 126°
2026-04-22 10:44 28.40934 111.61226 28809 ft 518 kts 127°
2026-04-22 10:44 28.39008 111.64613 29161 ft 516 kts 127°
2026-04-22 10:44 28.37057 111.68043 29476 ft 515 kts 127°
2026-04-22 10:44 28.35110 111.71465 29750 ft 515 kts 127°
2026-04-22 10:45 28.33157 111.74895 30051 ft 515 kts 127°
2026-04-22 10:45 28.31209 111.78310 30328 ft 515 kts 127°
2026-04-22 10:45 28.29261 111.81725 30592 ft 515 kts 127°
2026-04-22 10:45 28.27338 111.85093 30868 ft 514 kts 127°
2026-04-22 10:46 28.25390 111.88502 31127 ft 514 kts 127°
2026-04-22 10:46 28.23444 111.91905 31412 ft 514 kts 127°
2026-04-22 10:46 28.21492 111.95315 31675 ft 514 kts 127°
2026-04-22 10:46 28.19418 111.98593 31892 ft 511 kts 134°
2026-04-22 10:47 28.16951 112.01468 32050 ft 507 kts 144°
2026-04-22 10:47 28.14238 112.04029 32222 ft 507 kts 146°
2026-04-22 10:47 28.11491 112.06560 32420 ft 508 kts 146°
2026-04-22 10:47 28.08744 112.09084 32684 ft 508 kts 146°
2026-04-22 10:48 28.06042 112.11582 32973 ft 507 kts 146°
2026-04-22 10:48 28.03316 112.14124 33240 ft 507 kts 146°
2026-04-22 10:48 28.00603 112.16671 33484 ft 508 kts 146°
2026-04-22 10:48 27.97883 112.19235 33752 ft 507 kts 145°
2026-04-22 10:49 27.95167 112.21801 34015 ft 507 kts 145°
2026-04-22 10:49 27.92462 112.24357 34214 ft 508 kts 145°
2026-04-22 10:49 27.89737 112.26930 34389 ft 509 kts 145°
2026-04-22 10:49 27.87048 112.29464 34572 ft 510 kts 145°
2026-04-22 10:50 27.84318 112.32037 34771 ft 511 kts 145°
2026-04-22 10:50 27.81587 112.34607 34952 ft 511 kts 145°
2026-04-22 10:50 27.78850 112.37180 35087 ft 512 kts 145°
2026-04-22 10:51 27.73349 112.42346 35086 ft 513 kts 145°
2026-04-22 10:51 27.67869 112.47489 35089 ft 511 kts 145°
2026-04-22 10:52 27.62417 112.52597 35094 ft 509 kts 145°
2026-04-22 10:52 27.56971 112.57691 35088 ft 507 kts 145°
2026-04-22 10:53 27.51581 112.62726 35093 ft 507 kts 145°
2026-04-22 10:53 27.46143 112.67798 35096 ft 507 kts 145°
2026-04-22 10:54 27.40703 112.72866 35100 ft 507 kts 145°
2026-04-22 10:54 27.35252 112.77937 35094 ft 508 kts 145°
2026-04-22 10:55 27.29801 112.83003 35099 ft 509 kts 144°
2026-04-22 10:55 27.24327 112.88083 35101 ft 510 kts 144°
2026-04-22 10:56 27.19776 112.92302 35096 ft 511 kts 144°
2026-04-22 10:56 27.13395 112.98208 35102 ft 511 kts 144°
2026-04-22 10:57 27.08817 113.02441 35105 ft 512 kts 144°
2026-04-22 10:57 27.03311 113.07525 35107 ft 512 kts 144°
2026-04-22 10:58 26.97806 113.12602 35098 ft 512 kts 144°
2026-04-22 10:58 26.91405 113.18497 35100 ft 512 kts 144°
2026-04-22 10:59 26.86819 113.22714 35103 ft 512 kts 144°
2026-04-22 10:59 26.81311 113.27774 35105 ft 512 kts 144°
2026-04-22 11:00 26.75798 113.32832 35105 ft 512 kts 144°
2026-04-22 11:00 26.70285 113.37882 35104 ft 512 kts 144°
2026-04-22 11:01 26.64807 113.42895 35111 ft 512 kts 144°
2026-04-22 11:01 26.59286 113.47940 35096 ft 511 kts 143°
2026-04-22 11:02 26.53774 113.52970 35108 ft 511 kts 144°
2026-04-22 11:02 26.48260 113.57997 35109 ft 511 kts 144°
2026-04-22 11:03 26.42749 113.63014 35101 ft 510 kts 144°
2026-04-22 11:03 26.37268 113.67998 35110 ft 511 kts 144°
2026-04-22 11:04 26.31753 113.73006 35092 ft 511 kts 144°
2026-04-22 11:04 26.26227 113.78017 35081 ft 511 kts 144°
2026-04-22 11:05 26.20714 113.83012 35079 ft 510 kts 144°
2026-04-22 11:05 26.15233 113.87971 35073 ft 509 kts 144°
2026-04-22 11:06 26.09728 113.92946 35058 ft 509 kts 144°
2026-04-22 11:06 26.04074 113.97626 35039 ft 501 kts 159°
2026-04-22 11:06 26.00842 113.98910 35056 ft 490 kts 173°
2026-04-22 11:07 25.97492 113.99361 35054 ft 479 kts 186°
2026-04-22 11:07 25.90993 113.98333 35045 ft 471 kts 195°
2026-04-22 11:08 25.84553 113.97124 35037 ft 472 kts 195°
2026-04-22 11:08 25.78060 113.95973 35035 ft 472 kts 194°
2026-04-22 11:09 25.71554 113.94849 35034 ft 472 kts 194°
2026-04-22 11:09 25.65049 113.93729 35032 ft 473 kts 194°
2026-04-22 11:10 25.58539 113.92607 35037 ft 474 kts 194°
2026-04-22 11:10 25.52054 113.91489 35027 ft 475 kts 194°
2026-04-22 11:11 25.45522 113.90364 35021 ft 476 kts 194°
2026-04-22 11:11 25.38965 113.89236 35010 ft 476 kts 194°
2026-04-22 11:12 25.32423 113.88112 35022 ft 474 kts 194°
2026-04-22 11:12 25.25925 113.86997 35013 ft 475 kts 194°
2026-04-22 11:13 25.19379 113.85873 34994 ft 476 kts 194°
2026-04-22 11:13 25.12822 113.84751 34996 ft 476 kts 194°
2026-04-22 11:14 25.06300 113.83641 35001 ft 476 kts 194°
2026-04-22 11:14 24.99733 113.82527 34986 ft 477 kts 194°
2026-04-22 11:15 24.93172 113.81415 34980 ft 477 kts 194°
2026-04-22 11:15 24.86601 113.80301 34985 ft 477 kts 194°
2026-04-22 11:16 24.80073 113.79196 34974 ft 477 kts 194°
2026-04-22 11:16 24.73507 113.78086 34925 ft 478 kts 193°
2026-04-22 11:16 24.70203 113.77526 34668 ft 480 kts 193°
2026-04-22 11:17 24.66910 113.76971 34438 ft 476 kts 193°
2026-04-22 11:17 24.63639 113.76420 34206 ft 474 kts 193°
2026-04-22 11:17 24.60375 113.75870 34034 ft 475 kts 193°
2026-04-22 11:18 24.53855 113.74768 33965 ft 479 kts 193°
2026-04-22 11:18 24.47261 113.73658 33959 ft 478 kts 193°
2026-04-22 11:19 24.40684 113.72552 33940 ft 477 kts 193°
2026-04-22 11:19 24.34121 113.71459 33947 ft 476 kts 193°
2026-04-22 11:20 24.27614 113.70379 33940 ft 475 kts 193°
2026-04-22 11:20 24.21075 113.69252 33936 ft 475 kts 193°
2026-04-22 11:21 24.14529 113.68132 33930 ft 475 kts 193°